Location: Chiroubles
(46.1812°N, 4.6660°E)
Time: 12:13:54
(UTC+00:00)

Transit 4A - All Passes

Search period start: 30 November 2020 00:00
Search period end: 10 December 2020 00:00
Orbit: 862 x 982 km, 66.8° (Epoch: 29 November)

Date Brightness Start Highest point End Pass type
(mag) Time Alt. Az. Time Alt. Az. Time Alt. Az.
30 Nov - 06:16:09 10° SSE 06:21:23 28° ESE 06:26:42 10° NE visible
30 Nov - 08:01:04 10° SW 08:07:21 62° NW 08:13:45 10° NNE daylight
30 Nov - 09:50:34 10° WNW 09:55:04 20° NNW 09:59:37 10° NNE daylight
30 Nov - 11:42:26 10° NNW 11:44:17 11° N 11:46:07 10° NNE daylight
30 Nov - 13:29:31 10° NNW 13:33:37 17° NNE 13:37:40 10° ENE daylight
30 Nov - 15:15:21 10° NNW 15:21:35 52° NE 15:27:38 10° SE daylight
30 Nov - 17:02:08 10° NW 17:07:44 34° WSW 17:13:12 10° S visible
01 Dec - 06:24:40 10° S 06:30:29 40° ESE 06:36:24 10° NE visible
01 Dec - 08:10:43 10° WSW 08:16:49 46° NW 08:23:01 10° NNE daylight
01 Dec - 10:01:03 10° WNW 10:04:55 16° NNW 10:08:49 10° NNE daylight
01 Dec - 11:52:24 10° NNW 11:54:19 11° N 11:56:13 10° NNE daylight
01 Dec - 13:38:43 10° NNW 13:43:26 21° NNE 13:48:04 10° ENE daylight
01 Dec - 15:24:38 10° NNW 15:31:01 70° NE 15:37:12 10° SE daylight
01 Dec - 17:11:57 10° NW 17:16:48 24° WSW 17:21:32 10° SSW visible
02 Dec - 06:33:30 10° SSW 06:39:40 57° ESE 06:45:57 10° NE daylight
02 Dec - 08:20:35 10° WSW 08:26:23 35° NW 08:32:15 10° NNE daylight
02 Dec - 10:11:37 10° NW 10:14:50 14° NNW 10:18:03 10° NNE daylight
02 Dec - 12:01:58 10° NNW 12:04:19 12° N 12:06:40 10° NNE daylight
02 Dec - 13:47:55 10° NNW 13:53:11 26° NE 13:58:20 10° E daylight
02 Dec - 15:33:58 10° NW 15:40:23 85° WSW 15:46:34 10° SSE daylight
02 Dec - 17:22:11 10° WNW 17:25:47 16° WSW 17:29:19 10° SW visible
03 Dec - 05:00:13 10° SE 05:03:34 15° ESE 05:06:56 10° ENE visible
03 Dec - 06:42:35 10° SSW 06:48:55 80° ESE 06:55:23 10° NE daylight
03 Dec - 08:30:38 10° W 08:36:01 28° NW 08:41:28 10° NNE daylight
03 Dec - 10:22:15 10° NW 10:24:48 12° NNW 10:27:21 10° NNE daylight
03 Dec - 12:11:19 10° NNW 12:14:18 13° NNE 12:17:16 10° NE daylight
03 Dec - 13:57:08 10° NNW 14:02:51 33° NE 14:08:25 10° ESE daylight
03 Dec - 15:43:23 10° NW 15:49:39 61° WSW 15:55:42 10° SSE daylight
04 Dec - 05:07:51 10° SSE 05:12:32 22° ESE 05:17:17 10° ENE visible
04 Dec - 06:51:54 10° SW 06:58:16 76° NW 07:04:44 10° NNE daylight
04 Dec - 08:40:52 10° W 08:45:45 22° NNW 08:50:40 10° NNE daylight
04 Dec - 10:32:48 10° NNW 10:34:48 11° N 10:36:50 10° NNE daylight
04 Dec - 12:20:34 10° NNW 12:24:14 15° NNE 12:27:51 10° ENE daylight
04 Dec - 14:06:22 10° NNW 14:12:26 43° NE 14:18:19 10° ESE daylight
04 Dec - 15:52:55 10° NW 15:58:50 43° WSW 16:04:35 10° S daylight
05 Dec - 05:16:06 10° S 05:21:35 32° ESE 05:27:09 10° NE visible
05 Dec - 07:01:27 10° SW 07:07:42 56° NW 07:14:01 10° NNE daylight
05 Dec - 08:51:16 10° WNW 08:55:33 18° NNW 08:59:52 10° NNE daylight
05 Dec - 10:43:02 10° NNW 10:44:50 11° N 10:46:37 10° NNE daylight
05 Dec - 12:29:47 10° NNW 12:34:06 18° NNE 12:38:21 10° ENE daylight
05 Dec - 14:15:38 10° NNW 14:21:56 58° NE 14:28:01 10° SE daylight
05 Dec - 16:02:35 10° NW 16:07:57 30° WSW 16:13:10 10° SSW daylight
06 Dec - 05:24:44 10° S 05:30:43 46° ESE 05:36:48 10° NE visible
06 Dec - 07:11:11 10° WSW 07:17:12 42° NW 07:23:17 10° NNE daylight
06 Dec - 09:01:47 10° WNW 09:05:25 15° NNW 09:09:04 10° NNE daylight
06 Dec - 10:52:50 10° NNW 10:54:51 11° N 10:56:51 10° NNE daylight
06 Dec - 12:38:59 10° NNW 12:43:53 22° NNE 12:48:42 10° E daylight
06 Dec - 14:24:56 10° NNW 14:31:20 79° ENE 14:37:30 10° SE daylight
06 Dec - 16:12:31 10° WNW 16:16:59 21° WSW 16:21:20 10° SSW daylight
07 Dec - 03:53:08 10° ESE 03:54:48 11° E 03:56:28 10° E visible
07 Dec - 05:33:40 10° SSW 05:39:56 65° ESE 05:46:18 10° NE visible
07 Dec - 07:21:07 10° WSW 07:26:47 32° NW 07:32:31 10° NNE daylight
07 Dec - 09:12:24 10° NW 09:15:21 13° NNW 09:18:19 10° NNE daylight
07 Dec - 11:02:18 10° NNW 11:04:51 12° NNE 11:07:23 10° NE daylight
07 Dec - 12:48:11 10° NNW 12:53:36 28° NE 12:58:54 10° E daylight
07 Dec - 14:34:18 10° NW 14:40:39 76° WSW 14:46:48 10° SSE daylight
07 Dec - 16:23:04 10° WNW 16:25:56 13° W 16:28:46 10° SW visible
08 Dec - 03:59:47 10° SE 04:03:43 17° ESE 04:07:41 10° ENE visible
08 Dec - 05:42:50 10° SSW 05:49:13 89° ESE 05:55:42 10° NNE visible
08 Dec - 07:31:13 10° W 07:36:27 26° NW 07:41:43 10° NNE daylight
08 Dec - 09:23:01 10° NNW 09:25:20 12° N 09:27:39 10° NNE daylight
08 Dec - 11:11:36 10° NNW 11:14:49 14° NNE 11:18:00 10° NE daylight
08 Dec - 12:57:24 10° NNW 13:03:14 36° NE 13:08:55 10° ESE daylight
08 Dec - 14:43:45 10° NW 14:49:54 54° WSW 14:55:51 10° S daylight
09 Dec - 04:07:41 10° SSE 04:12:44 25° ESE 04:17:49 10° NE visible
09 Dec - 05:52:15 10° SW 05:58:36 68° NW 06:05:02 10° NNE visible
09 Dec - 07:41:31 10° WNW 07:46:12 21° NNW 07:50:54 10° NNE daylight
09 Dec - 09:33:29 10° NNW 09:35:22 11° N 09:37:13 10° NNE daylight
09 Dec - 11:20:51 10° NNW 11:24:44 16° NNE 11:28:33 10° ENE daylight
09 Dec - 13:06:39 10° NNW 13:12:47 47° NE 13:18:44 10° ESE daylight
09 Dec - 14:53:19 10° NW 14:59:03 38° WSW 15:04:38 10° S daylight
